Regional Weather Roundup
Issued by NWS

Home | Current Version | Previous Version | Graphics & Text | Print | Product List | Glossary Off
Versions: 1 2 3 4 5 6 7 8 9 10 11 12 13 14 15 16 17 18 19 20 21 22 23 24 25 26 27 28 29 30 31 32 33 34 35 36 37 38 39 40 41 42 43 44 45 46 47 48 49 50

943
ASUS43 KLSX 270907
RWRMO

WEATHER SUMMARY FOR MISSOURI
NATIONAL WEATHER SERVICE SPRINGFIELD MO
400 AM CDT SAT AUG 27 2016

NOTE: "FAIR" INDICATES FEW OR NO CLOUDS BELOW 12,000 FEET WITH NO
       SIGNIFICANT WEATHER AND/OR OBSTRUCTIONS TO VISIBILITY.
       CURRENT SKY AND/OR WEATHER CONDITIONS ARE NOT AVAILABLE FOR
       CHILLICOTHE AND FARMINGTON.

MOZ001>031-035>038-043-044-053-054-271000-
...NORTHERN AND WESTERN MISSOURI...

CITY           SKY/WX    TMP DP  RH WIND       PRES   REMARKS
KANSAS CTY INT CLOUDY    66  66 100 S5        30.00F
KANSAS C DTWN  PTCLDY    70  67  90 CALM      30.00S
LEE`S SUMMIT   MOCLDY    69  66  90 S6        30.02S
ST JOSEPH      CLOUDY    69  68  96 S3        30.00S FOG
KIRKSVILLE     PTCLDY    67  65  93 CALM      30.00F

$$
MOZ066>068-077>081-088>096-101>105-271000-
...SOUTHWEST MISSOURI...

CITY           SKY/WX    TMP DP  RH WIND       PRES   REMARKS
SPRINGFIELD    CLOUDY    73  69  87 S7        30.05S
JOPLIN         CLEAR     69  68  96 E6        30.04R
BRANSON        PTCLDY    70  70 100 CALM      30.07S

$$
MOZ032>034-039>042-045>050-055>058-069>072-271000-
...CENTRAL MISSOURI...

CITY           SKY/WX    TMP DP  RH WIND       PRES   REMARKS
COLUMBIA       CLOUDY    71  71 100 S6        30.03F
JEFFERSON CITY CLOUDY    73  71  93 CALM      30.02S
ROLLA          CLOUDY    72  69  90 S9        30.05S
SEDALIA        FOG       71  69  93 S6        30.03F VSB 1/4
WHITEMAN AFB   CLOUDY    68  68 100 S6        30.01F

$$
MOZ051-052-059>065-271000-
...EAST CENTRAL MISSOURI...

CITY           SKY/WX    TMP DP  RH WIND       PRES   REMARKS
ST LOUIS INTL  CLOUDY    77  71  82 S5        30.03F
SPIRIT OF STL  CLOUDY    76  71  85 SW5       30.02F
ST CHARLES     CLOUDY    75  73  93 S6        30.02F

$$
MOZ072>076-082>087-097>100-106>115-271000-
...SOUTH CENTRAL AND SOUTHEAST MISSOURI...

CITY           SKY/WX    TMP DP  RH WIND       PRES   REMARKS
CAPE GIRARDEAU PTCLDY    69  68  96 CALM      30.03F
FARMINGTON     CLOUDY    70  67  90 S6        30.07F
POPLAR BLUFF   MOCLDY    70  69  97 CALM      30.04S
WEST PLAINS    PTCLDY    69  66  90 CALM      30.11S

$$



USA.gov is the U.S. government's official web portal to all federal, state and local government web resources and services.